Regional Weather Roundup
Issued by NWS

Home | Current Version | Previous Version | Text Only | Print | Product List | Glossary Off
Versions: 1 2 3 4 5 6 7 8 9 10 11 12 13 14 15 16 17 18 19 20 21 22 23 24 25 26 27 28 29 30 31 32 33 34 35 36 37 38 39 40 41 42 43 44 45 46 47 48 49 50

000
ASUS43 KOAX 280310
RWRNE

WEATHER ROUNDUP FOR NEBRASKA
NATIONAL WEATHER SERVICE OMAHA NE
900 PM CST FRI FEB 27 2015

NOTES: SATELLITE DATA IS BEING USED TO AUGMENT CLOUD COVER ABOVE
       12000 FEET.
       "FAIR" INDICATES FEW OR NO CLOUDS BELOW 12,000 FEET WITH NO
       SIGNIFICANT WEATHER AND/OR OBSTRUCTIONS TO VISIBILITY.

  * THESE STATIONS DO NOT REPORT WEATHER SUCH AS RAIN...SNOW OR FOG.

NEZ001>004-019>022-054>056-280400-
NEBRASKA PANHANDLE

CITY           SKY/WX    TMP DP  RH WIND       PRES   REMARKS
SCOTTSBLUFF    CLOUDY    18   8  65 SE14      30.01F WCI   4
ALLIANCE       FLURRIES  17   7  64 S17G29    30.03S WCI   1
CHADRON        PTCLDY    19   8  62 S15       30.03F WCI   5
KIMBALL        MOCLDY    11   6  81 S16       29.95S WCI  -6
SIDNEY         CLOUDY    11   6  81 S15       30.04S WCI  -5
$$

NEZ057>060-069>072-079>082-280400-
SOUTHWEST NEBRASKA

CITY           SKY/WX    TMP DP  RH WIND       PRES   REMARKS
NORTH PLATTE   CLOUDY    18   4  54 S14G25    30.23S WCI   4
IMPERIAL         N/A     15   5  64 S17       30.18S WCI  -1
LEXINGTON      CLEAR     14   0  52 S10       30.31S WCI   1
MCCOOK         CLOUDY    19   8  62 S15       30.28S WCI   5
OGALLALA       CLOUDY    17   9  70 S16G22    30.16F WCI   2
$$

NEZ005>010-023>029-035>040-094-280400-
NORTH CENTRAL NEBRASKA

CITY           SKY/WX    TMP DP  RH WIND       PRES   REMARKS
VALENTINE      CLEAR     18   4  54 S10       30.19S WCI   6
AINSWORTH      CLEAR     15   0  53 S9        30.22S WCI   3
BROKEN BOW     CLEAR     15  -2  46 S17G23    30.28S WCI  -1
O`NEILL        CLEAR     15   0  50 S12       30.32S WCI   2
ORD            CLEAR     14  -5  42 S10       30.33S WCI   1
THEDFORD       CLOUDY    17   5  58 S8        30.20F WCI   7
$$

NEZ041-046>049-061>064-073>077-083>087-280400-
SOUTH CENTRAL NEBRASKA

CITY           SKY/WX    TMP DP  RH WIND       PRES   REMARKS
GRAND ISLAND   MOCLDY    14   0  53 S10       30.41R WCI   1
AURORA         CLOUDY    15   1  53 S9        30.41R WCI   3
HASTINGS       PTCLDY    12  -2  53 S7        30.38S WCI   1
HEBRON         CLOUDY    15   3  59 S3        30.46S
HOLDREGE       CLEAR     13   3  63 S8        30.34S WCI   2
KEARNEY *      CLEAR     10  -2  56 SE12      30.36S WCI  -4
YORK           PTCLDY    14   1  57 S6        30.43S WCI   5
$$

NEZ011>018-030>034-042>045-280400-
NORTHEAST NEBRASKA

CITY           SKY/WX    TMP DP  RH WIND       PRES   REMARKS
NORFOLK        CLEAR     13   2  61 SE10      30.42S WCI   0
ALBION         CLEAR     11  -2  55 SE8       30.39S WCI  -1
BLAIR          CLEAR     13   4  67 SE7       30.49S WCI   2
COLUMBUS *     CLEAR     12  -4  48 SE8       30.45S WCI   1
FREMONT        FAIR      14   5  67 SE5       30.49S WCI   6
TEKAMAH        CLEAR     11   3  70 SE9       30.52S WCI  -2
WAYNE          CLEAR      9   2  71 SE10      30.45S WCI  -5
$$

NEZ050>053-065>068-078-088>093-280400-
SOUTHEAST NEBRASKA

CITY           SKY/WX    TMP DP  RH WIND       PRES   REMARKS
LINCOLN        MOCLDY    12   1  61 S8        30.50S WCI   0
OMAHA EPPLEY   CLEAR     12   3  67 SE7       30.54S WCI   1
BEATRICE       CLOUDY    15   0  52 SE5       30.48S WCI   7
FALLS CITY     CLEAR     13  -1  54 SE3       30.54S
NEBRASKA CITY  PTCLDY    12  -5  45 S5        30.52S WCI   4
PLATTSMOUTH    PTCLDY    13   0  55 SE5       30.52R WCI   5
$$

NEZ044-045-051>053-067-280400-
OMAHA AREA

CITY           SKY/WX    TMP DP  RH WIND       PRES   REMARKS
OMAHA EPPLEY   CLEAR     12   3  67 SE7       30.54S WCI   1
BLAIR          CLEAR     13   4  67 SE7       30.49S WCI   2
FREMONT        FAIR      14   5  67 SE5       30.49S WCI   6
MILLARD        CLEAR     14   4  64 SE3       30.52S
OFFUTT AFB     CLEAR     10   2  72 E5        30.52S WCI   1
PLATTSMOUTH    PTCLDY    13   0  55 SE5       30.52R WCI   5
WAHOO          FAIR       9   1  69 SE7       30.49S WCI  -2
$$


USA.gov is the U.S. government's official web portal to all federal, state and local government web resources and services.